Weather in Zhezkent

Kazakhstan     50°55′12″N   81°23′37″E
temp.,
°C
wind,
m/s
gust,
m/s
humid.,
%
clouds,
%
prec.,
mm/h
press.,
hPa
HPBL,
m
14 august, sun
sun1400:00+16sw23830 0.9 101323
03:00+14ssw33750 0.0 101336
06:00+14ssw35725 0.0 101391
09:00+20sw5949100 0.0 1013613
12:00+26wsw683256 0.0 10122460
15:00+25wnw563699 0.0 10112034
18:00+23wnw4641100 0.0 1011809
21:00+20wnw225013 0.0 101118
15 august, mon
mon1500:00+18nnw384327 0.0 1012232
03:00+13n336520 0.0 101235
06:00+12nnw34715 0.0 101369
09:00+19nnw46393 0.0 10141390
12:00+21nw66305 0.0 10132086
15:00+23nnw56245 0.0 10122378
18:00+22nnw66276 0.0 10112526
21:00+15nnw46429 0.0 1013101
16 august, tue
tue1600:00+14n495111 0.0 1014241
03:00+10nw35670 0.0 101488
06:00+9nnw24740 0.0 101576
09:00+15nnw56430 0.0 1016968
12:00+18nnw66283 0.0 10151844
15:00+20nnw56255 0.0 10142306
18:00+19nnw662712 0.0 10142356
21:00+15nne223577 0.0 101421
17 august, wed
wed1700:00+13n353997 0.0 1015164
03:00+9n12522 0.0 101411
06:00+8w11565 0.0 101510
09:00+15wnw343648 0.0 1014832
12:00+19w4528100 0.0 10122312
15:00+19wnw6934100 0.0 10112513
18:00+17wnw794597 0.1 10122166
21:00+11wnw3470100 0.6 101461
18 august, thu
thu1800:00+8wsw118219 0.6 101510
03:00+7sw22845 0.0 101511
06:00+6sw118290 0.0 101612
09:00+13w235586 0.0 1016691
12:00+16wnw4634100 0.1 10142578
15:00+16wnw343783 0.1 10141856
18:00+15nw454276 0.1 10141532
21:00+10n33567 0.0 101542